Location: Newark
(34.6283°N, 36.0776°E)
Time: 17:19:03
(UTC+00:00)

S-56A Canister/Altair - Pass Details

Date: 18 October 2019
Orbit: 634 x 2498 km, 38.9° (Epoch: 17 November)

Event Time Altitude Azimuth Distance (km) Brightness Sun altitude
Rises 22:37:18 0° 208° (SSW) 3,069 - -59.6°
Reaches altitude 10° 22:39:43 10° 195° (SSW) 2,281 - -59.3°
Maximum altitude 22:44:10 28° 137° (SE) 1,651 - -58.7°
Drops below altitude 10° 22:50:03 10° 82° (E) 3,078 - -57.9°
Exits shadow 22:51:20 - 78° (ENE) 3,513 11.2 -57.7°
Sets 22:53:51 0° 72° (ENE) 4,382 11.8 -57.3°
